Welcome to the New NWS' Forecast!
Most changes are behind the scenes, but click here for differences you might notice.
Latest weather observations around

El Dorado, South Arkansas Regional at Goodwin Field Airport (KELD)

Using English Units (Switch to International System of Units)
Date/ Time (CDT) Wind (mph) Vis. (mi) Weather Sky Cond. Temp (°F) Rel. Humidity Wind Chill (°F) Heat Index (°F) Pressure Precip. (in)
Air Dwpt 6 hour Altimeter (inHg) Sea level (inHg) 1 hr 3 hr 6 hr
Max Min
Sep 19 05:53 SW 3 10 Clear CLR 71 70     96%   72 29.95 29.94      
Sep 19 04:53 SW 3 8 Clear CLR 72 71     97%   73 29.94 29.93      
Sep 19 03:53 SSW 5 9 Clear CLR 72 71     97%   73 29.93 29.92      
Sep 19 02:53 SSW 3 7 Clear CLR 72 71     97%   73 29.94 29.92      
Sep 19 01:53 Calm 8 Clear CLR 72 71     97%   73 29.95 29.93      
Sep 19 00:53 Calm 5 Fog/Mist CLR 72 72     100%   74 29.95 29.94      
Sep 18 23:53 Calm 8 Clear CLR 73 73     100%   75 29.96 29.95      
Sep 18 22:53 Calm 10 Partly Cloudy SCT060 75 73     94%   77 29.97 29.96      
Sep 18 21:53 Calm 10 Clear CLR 76 74     94%   78 29.97 29.95      
Sep 18 20:53 Calm 10 Clear CLR 76 73     91%   77 29.96 29.94      
Sep 18 19:53 ENE 3 10 Clear CLR 79 74     85%   83 29.95 29.94      
Sep 18 18:53 Calm 10 Clear   83 73     72%   89 29.94 29.93      
Sep 18 17:53 S 3 10 Clear CLR 89 69     52%   94 29.93 29.91      
Sep 18 16:53 Calm 10 Clear CLR 90 68     49%   94 29.93 29.92      
Sep 18 15:53 5 10 Clear CLR 91 70     50%   97 29.94 29.93      
Sep 18 14:53 WSW 5 10 Clear CLR 89 69     52%   94 29.98 29.97      
Sep 18 13:53 SW 3 10 Partly Cloudy FEW040 SCT050 SCT080 88 69     54%   92 30.01 29.99      
Sep 18 12:53 S 9 10 Mostly Cloudy SCT036 SCT046 BKN055 91 70     50%   97 30.03 30.01      
Sep 18 11:53 WSW 5 10 Partly Cloudy SCT034 87 72     61%   94 30.04 30.03      
Sep 18 10:53 5 10 Clear CLR 84 71     65%   89 30.05 30.03      
Sep 18 09:53 3 10 Clear CLR 81 72     74%   85 30.04 30.03      
Sep 18 08:53 Calm 10 Mostly Cloudy FEW070 BKN100 75 73     94%   77 30.04 30.03      
Sep 18 07:53 Calm 10 Mostly Cloudy BKN095 71 71     100%   73 30.04 30.03      
Sep 18 07:08 Calm 6 Fog/Mist SCT002 69 69     100%     30.04        
Sep 18 03:53 Calm 8 Clear CLR 72 72     100%   74 29.99 29.98      
Sep 18 02:53 Calm 6 Fog/Mist CLR 72 72     100%   74 29.99 29.98      
Sep 18 01:59 Calm 3 Fog/Mist CLR 72 71     97%   73 29.99        
Sep 18 01:53 Calm 1 Fog/Mist CLR 72 72     100%   74 29.99 29.98      
Sep 18 01:48 Calm 1.5 Fog/Mist CLR 72 72     100%   73 30        
Sep 18 00:53 Calm 10 Clear CLR 74 73     97%   76 30.01 29.99      
Sep 17 23:53 Calm 10 Clear CLR 75 74     96%   77 30.02 30.01      
Sep 17 22:53 E 3 10 Clear CLR 76 74     94%   78 30.04 30.02      
Sep 17 21:53 E 5 10 Partly Cloudy SCT039 78 75     90%   80 30.04 30.02      
Sep 17 20:53 Calm 10 Mostly Clear FEW041 78 76     93%   80 30.03 30.01      
Sep 17 19:53 ENE 3 10 Cloudy OVC110 80 76     87%   85 30.02 30.01      
Sep 17 18:53 Calm 10 Cloudy OVC110 84 76     77%   93 30.02 30.01      
Sep 17 17:53 Calm 10 Partly Cloudy SCT110 88 72     59%   95 30 29.99      
Sep 17 16:53 Calm 10 Clear CLR 89 71     55%   95 29.99 29.98      
Sep 17 15:53 Calm 10 Partly Cloudy FEW039 SCT100 87 71     59%   93 30.01 30      
Sep 17 14:53 Calm 10 Partly Cloudy SCT042 88 70     55%   93 30.04 30.02      
Sep 17 13:53   10 Partly Cloudy FEW038 SCT055 90 72     56%   97 30.06 30.04      
Sep 17 12:53 ENE 3 10 Mostly Cloudy SCT037 BKN055 86 71     61%   92 30.08 30.06      
Sep 17 11:53 NNE 6 10 Partly Cloudy FEW028 FEW033 SCT048 86 72     63%   92 30.08 30.06      
Sep 17 11:42 Calm 10 Partly Cloudy SCT026 SCT033 85 72     65%   91 30.08        
Sep 17 11:22 Calm 10 Mostly Cloudy BKN026 BKN033 85 72     65%   91 30.08        
Sep 17 10:53 WSW 3 10 Mostly Clear FEW021 85 73     68%   92 30.08 30.07      
Sep 17 09:53 Calm 10 Clear CLR 80 73     79%   84 30.08 30.07      
Sep 17 08:53 SE 3 10 Clear CLR 75 72     90%   76 30.08 30.07      
Sep 17 07:53 Calm 10 Clear CLR 70 68     93%     30.07 30.06      
Sep 17 06:53 Calm 10 Clear CLR 67 66     97%     30.05 30.04      
Sep 17 05:53 Calm 10 Clear CLR 67 66     97%     30.04 30.02      
Sep 17 04:53 Calm 7 Clear CLR 67 67     100%     30.02 30.01      
Sep 17 03:53 Calm 7 Clear CLR 67 67     100%     30.02 30.01      
Sep 17 02:17 Calm 10 Clear CLR 69 69     100%     30.03        
Sep 17 01:56 Calm 1.5 Fog/Mist CLR 69 68     96%     30.03        
Sep 17 01:53 Calm 3 Fog/Mist CLR 68 68     100%     30.03 30.02      
Sep 17 00:53 Calm 9 Clear CLR 69 69     100%     30.03 30.02      
Sep 16 23:53 Calm 10 Clear CLR 70 69     97%     30.03 30.02      
Sep 16 22:53 Calm 10 Clear CLR 72 71     97%   73 30.03 30.02      
Sep 16 21:53 ENE 3 10 Clear CLR 73 71     94%   74 30.02 30.01      
Sep 16 20:53 Calm 10 Clear CLR 75 72     90%   76 30.01 30      
Sep 16 19:53 Calm 10 Clear CLR 78 73     85%   80 29.98 29.97      
Sep 16 18:53 SE 3 10 Clear CLR 84 71     65%   89 29.97 29.96      
Sep 16 17:53 SE 6 10 Clear CLR 88 69     54%   92 29.98 29.96      
Sep 16 16:53 SE 9 10 Mostly Cloudy BKN042 BKN065 89 70     53%   94 29.98 29.96      
Sep 16 15:53 SE 6 10 Partly Cloudy FEW043 SCT075 91 70     50%   97 29.98 29.97      
Sep 16 14:53 ESE 7 10 Mostly Clear FEW044 89 69     52%   94 30 29.98      
Sep 16 13:53 S 6 10 Mostly Clear FEW043 89 69     52%   94 30.01 30      
Sep 16 12:53 Calm 10 Partly Cloudy FEW055 SCT070 87 69     55%   91 30.04 30.03      
Sep 16 11:53 S 5 10 Clear CLR 86 72     63%   92 30.05 30.04      
Sep 16 10:53 S 3 10 Clear CLR 83 72     70%   88 30.06 30.05      
Sep 16 09:53 SSE 5 10 Clear CLR 78 72     82%   79 30.06 30.06      
Sep 16 08:53 SSE 3 10 Mostly Clear FEW007 74 71     91%   75 30.05 30.04      
Sep 16 07:53 Calm 9 Clear CLR 68 66     93%     30.04 30.03      
Sep 16 06:53 Calm 8 Clear CLR 64 63     96%     30.02 30.01      
Sep 16 05:53 Calm 7 Clear CLR 64 63     96%     30 29.99      
Sep 16 04:53 Calm 9 Clear CLR 65 64     97%     29.98 29.96      
Sep 16 03:53 Calm 6 Fog/Mist CLR 66 65     96%     29.97 29.96      
Jun 08 23:53 Calm 10 Clear CLR 63 59     87%     29.95 29.93      
Jun 06 05:53 N 6 10 Cloudy OVC004 71 70     96%   72 29.78 29.76      
Jun 06 01:25 N 3 10 Cloudy SCT006 BKN011 OVC030 71 69     93%   72 29.78